星链-6093 (STARLINK-6093 )

导读 | 豆包AI

STARLINK-6093是美国SpaceX公司星链(Starlink)星座中的卫星,于2023年3月29日发射入轨。星链项目计划在近地轨道构建大规模卫星互联网星座,为全球偏远、缺乏传统网络基础设施的区域提供高速低延迟宽带服务,该卫星已正常在轨运行近三年,助力星链网络实现更稳定的覆盖与服务拓展,目前星链已在全球60多个国家和地区落地商用,用户规模超500万。

基本信息
目录编号:
56099
目录名称:
STARLINK-6093
国际标识:
2023-046G
轨道中心:
EARTH
卫星名称:
星链-6093
卫星全名:
星链-6093 (STARLINK-6093 )
卫星状态:
已陨落 最后检测时间 2025-06-26
发射日期:
2023-03-29 UTC
国别 :
美国 (US)
星等 :
--
轨道信息
数据来源 国际轨道数据
星历时间: 2025-06-25T11:19:08+0800
轨道信息已过期263天
半长轴: 6560.988km
偏心率: 0.0011762
轨道倾角: 42.994°
近地点辐角 235.388°
升交点赤经 86.252°
平近点角 275.209°
近地点: 175.135km
远地点: 190.571km
周期: 88.148分钟
每日圈数: 16.33612
详细信息
固有亮度:
5
最大亮度:
2.5
卫星平台:
Starlink v1.5
覆盖范围:
全球
运营商:
太空探索技术公司
运营商所在国:
美国
制造商(研发单位):
太空探索技术公司
制造商所在国:
美国
使用方式:
暂无
卫星简介
星链(Starlink)计划是由太空探索技术公司(SpaceX)提出的一个巨型低轨卫星互联网星座项目,计划在2019年至2024年间在太空搭建由约1.2万颗卫星组成的“星链”网络,其中1584颗将部署在地球上空550千米处的近地轨道,并从2020年开始工作。该卫星仍在工作。